CTN5NL LDZA-LDDU

Flight info

Callsign CTN5NL
Flight time N/A
Altitude 33000
Route NIVES DCT UNIPA DCT SIPAL
Aircraft A320/M-SDE3FGHIRWY/LB1

Departure

Time 2026-04-28 17:31
Airport Zagreb Franjo Tuđman International Airport (LDZA)

Arrival

Time N/A
Airport Dubrovnik Ruđer Bošković Airport (LDDU)
Time Latitude Longitude Altitude Speed Heading
2026-04-28 17:11 45.74288 16.08009 365 ft 0 kts 137°
2026-04-28 17:19 45.74291 16.08005 359 ft 3 kts 137°
2026-04-28 17:20 45.74311 16.07979 358 ft 4 kts 136°
2026-04-28 17:20 45.74324 16.07961 362 ft 4 kts 136°
2026-04-28 17:20 45.74345 16.07931 362 ft 4 kts 135°
2026-04-28 17:20 45.74363 16.07912 359 ft 2 kts 156°
2026-04-28 17:21 45.74380 16.07906 359 ft 0 kts 167°
2026-04-28 17:23 45.74359 16.07905 361 ft 8 kts 189°
2026-04-28 17:23 45.74296 16.07824 359 ft 16 kts 227°
2026-04-28 17:24 45.74222 16.07710 359 ft 15 kts 227°
2026-04-28 17:24 45.74153 16.07606 363 ft 14 kts 226°
2026-04-28 17:24 45.74090 16.07510 359 ft 11 kts 226°
2026-04-28 17:24 45.74067 16.07416 359 ft 10 kts 290°
2026-04-28 17:25 45.74112 16.07346 361 ft 9 kts 316°
2026-04-28 17:25 45.74192 16.07239 359 ft 7 kts 317°
2026-04-28 17:25 45.74214 16.07186 360 ft 6 kts 282°
2026-04-28 17:26 45.74203 16.07139 361 ft 5 kts 237°
2026-04-28 17:26 45.74153 16.07060 359 ft 18 kts 227°
2026-04-28 17:26 45.74042 16.06891 365 ft 26 kts 227°
2026-04-28 17:26 45.73918 16.06702 362 ft 26 kts 227°
2026-04-28 17:27 45.73790 16.06507 359 ft 28 kts 227°
2026-04-28 17:27 45.73652 16.06297 359 ft 30 kts 226°
2026-04-28 17:27 45.73511 16.06083 359 ft 29 kts 226°
2026-04-28 17:27 45.73380 16.05883 362 ft 25 kts 226°
2026-04-28 17:28 45.73289 16.05745 362 ft 15 kts 227°
2026-04-28 17:28 45.73155 16.05541 364 ft 13 kts 227°
2026-04-28 17:28 45.73104 16.05442 359 ft 12 kts 247°
2026-04-28 17:29 45.73108 16.05337 360 ft 10 kts 296°
2026-04-28 17:29 45.73147 16.05277 361 ft 7 kts 328°
2026-04-28 17:29 45.73182 16.05260 362 ft 4 kts 346°
2026-04-28 17:30 45.73240 16.05276 362 ft 7 kts 47°
2026-04-28 17:30 45.73252 16.05294 365 ft 5 kts 47°
2026-04-28 17:30 45.73415 16.05544 362 ft 72 kts 47°
2026-04-28 17:31 45.73923 16.06309 361 ft 136 kts 46°
2026-04-28 17:31 45.75406 16.08714 1329 ft 170 kts 58°
2026-04-28 17:32 45.76010 16.11884 2807 ft 173 kts 89°
2026-04-28 17:32 45.75924 16.13690 3248 ft 193 kts 98°
2026-04-28 17:32 45.75651 16.15684 3684 ft 215 kts 102°
2026-04-28 17:32 45.75319 16.17869 4269 ft 232 kts 103°
2026-04-28 17:33 45.74962 16.20173 5053 ft 242 kts 103°
2026-04-28 17:33 45.74591 16.22575 5847 ft 252 kts 103°
2026-04-28 17:33 45.74208 16.25071 6604 ft 261 kts 102°
2026-04-28 17:33 45.73948 16.26774 6859 ft 268 kts 102°
2026-04-28 17:34 45.73191 16.30169 6995 ft 267 kts 120°
2026-04-28 17:34 45.72101 16.32303 7010 ft 265 kts 136°
2026-04-28 17:34 45.70756 16.34098 7009 ft 264 kts 139°
2026-04-28 17:34 45.69396 16.35866 7012 ft 264 kts 143°
2026-04-28 17:35 45.67768 16.36976 7010 ft 259 kts 173°
2026-04-28 17:35 45.66001 16.36821 7023 ft 261 kts 202°
2026-04-28 17:35 45.64472 16.35355 7558 ft 271 kts 228°
2026-04-28 17:35 45.63166 16.33373 8455 ft 275 kts 229°
2026-04-28 17:36 45.61844 16.31367 9397 ft 279 kts 229°
2026-04-28 17:36 45.60505 16.29337 10294 ft 282 kts 229°
2026-04-28 17:36 45.59153 16.27282 11146 ft 286 kts 229°
2026-04-28 17:36 45.57785 16.25200 11970 ft 289 kts 229°
2026-04-28 17:37 45.56400 16.23091 12799 ft 293 kts 229°
2026-04-28 17:37 45.54996 16.20957 13643 ft 296 kts 229°
2026-04-28 17:37 45.53578 16.18802 14395 ft 300 kts 229°
2026-04-28 17:37 45.52145 16.16621 15122 ft 303 kts 229°
2026-04-28 17:38 45.50693 16.14416 15832 ft 307 kts 229°
2026-04-28 17:38 45.49224 16.12188 16533 ft 311 kts 229°
2026-04-28 17:38 45.47737 16.09935 17252 ft 314 kts 229°
2026-04-28 17:38 45.46222 16.07645 17853 ft 322 kts 229°
2026-04-28 17:39 45.44635 16.05241 17988 ft 344 kts 229°
2026-04-28 17:39 45.42959 16.02703 18307 ft 357 kts 229°
2026-04-28 17:39 45.39506 15.97497 19449 ft 365 kts 229°
2026-04-28 17:40 45.37751 15.94856 20074 ft 368 kts 230°